Location: Unspecified
(0.0000°N, 0.0000°E)
Time: 10:09:55
(UTC+00:00)

CUBESAT XI-V - Pass Details

Date: 09 December 2017
Orbit: 670 x 694 km, 97.9° (Epoch: 17 January)

Event Time Altitude Azimuth Distance (km) Brightness Sun altitude
Rises 03:16:42 0° 149° (SSE) 3,016 ? -35.4°
Reaches altitude 10° 03:19:10 10° 138° (SE) 2,102 ? -34.8°
Enters shadow 03:22:15 27° 99° (E) 1,280 ? -34.1°
